Lafayette, IN

12:05 AM EDT on March 27, 2017 (GMT -0400)
Purdue Univ

Weather History for KLAF - April, 2014

Change the Weather History Date:

Monday, April 7, 2014

  Actual Average Record
Temperature  
Mean Temperature 45 °F 49 °F  
Max Temperature 50 °F 60 °F 80 °F (1986)
Min Temperature 39 °F 38 °F 7 °F (1982)
Degree Days  
Heating Degree Days 20 16  
Month to date heating degree days 139 121  
Since 1 July heating degree days 6089 5206  
Cooling Degree Days 0 0  
Month to date cooling degree days 0 0  
Year to date cooling degree days 0 1  
Moisture  
Dew Point 36 °F    
Average Humidity 74    
Maximum Humidity 89    
Minimum Humidity 58    
Precipitation  
Precipitation 0.95 in 0.11 in 0.98 in (1972)
Month to date precipitation 3.36 0.71  
Year to date precipitation 8.20 7.00  
Sea Level Pressure  
Sea Level Pressure 29.68 in    
Wind  
Wind Speed 10 mph (NNE)    
Max Wind Speed 20 mph    
Max Gust Speed 25 mph    
Visibility 7 miles    
Events Rain    
T = Trace of Precipitation, MM = Missing Value Source: NWS Daily Summary

Daily Weather History Graph

Daily Weather History Graph

Search for Another Location

Airport or City:

Trip Planner

Search our weather history database for the weather conditions in past years. The results will help you decide how hot, cold, wet, or windy it might be!

Date:

Astronomy

Apr. 07, 2014 Rise Set
Actual Time 7:21 AM EDT 8:18 PM EDT
Civil Twilight 6:54 AM EDT 8:46 PM EDT
Nautical Twilight 6:21 AM EDT 9:19 PM EDT
Astronomical Twilight 5:46 AM EDT 9:53 PM EDT
Moon 1:16 PM EDT (4/7) 2:56 AM EDT (4/7)
Length of Visible Light 13h 52m
Length of Day
12h 56m
First Quarter, 53% of the Moon is Illuminated
Apr 7
First Quarter
Apr 15
Full
Apr 22
Last Quarter
Apr 29
New
May 6
First Quarter

Hourly Weather History & Observations

Time (EDT) Temp. Windchill Dew Point Humidity Pressure Visibility Wind Dir Wind Speed Gust Speed Precip Events Conditions
12:54 AM 43.0 °F 38.8 °F 33.1 °F 68% 29.94 in 10.0 mi ENE 6.9 mph - N/A   Clear
1:54 AM 42.1 °F 38.4 °F 33.1 °F 70% 29.91 in 10.0 mi ENE 5.8 mph - N/A   Clear
2:54 AM 41.0 °F 36.4 °F 32.0 °F 70% 29.88 in 10.0 mi NE 6.9 mph - N/A   Clear
3:54 AM 41.0 °F 35.8 °F 32.0 °F 70% 29.84 in 10.0 mi NE 8.1 mph - N/A   Clear
4:54 AM 39.9 °F 35.1 °F 32.0 °F 73% 29.78 in 10.0 mi ENE 6.9 mph - N/A   Clear
5:54 AM 41.0 °F 36.4 °F 33.1 °F 73% 29.80 in 10.0 mi ENE 6.9 mph - N/A   Mostly Cloudy
6:54 AM 41.0 °F 37.1 °F 33.1 °F 73% 29.81 in 10.0 mi NE 5.8 mph - N/A   Overcast
7:54 AM 42.1 °F 37.1 °F 33.1 °F 70% 29.78 in 10.0 mi NE 8.1 mph - N/A   Overcast
8:54 AM 42.1 °F 36.1 °F 30.9 °F 65% 29.79 in 10.0 mi ENE 10.4 mph - N/A   Overcast
9:54 AM 45.0 °F 39.7 °F 32.0 °F 60% 29.73 in 10.0 mi NE 10.4 mph - N/A   Mostly Cloudy
10:54 AM 46.9 °F - 32.0 °F 56% 29.69 in 10.0 mi NE 11.5 mph - N/A   Overcast
11:54 AM 48.0 °F - 33.1 °F 56% 29.65 in 10.0 mi NE 15.0 mph - 0.00 in Rain Light Rain
12:54 PM 48.9 °F - 32.0 °F 52% 29.62 in 10.0 mi ENE 16.1 mph - 0.00 in   Overcast
1:54 PM 46.0 °F 40.6 °F 37.0 °F 71% 29.59 in 6.0 mi NNE 11.5 mph - 0.04 in Rain Rain
2:54 PM 45.0 °F 38.2 °F 37.0 °F 74% 29.59 in 4.0 mi NNE 15.0 mph - 0.09 in Rain Rain
4:54 PM 44.1 °F 37.1 °F 39.9 °F 85% 29.55 in 3.0 mi North 15.0 mph 25.3 mph 0.12 in Rain Rain
5:51 PM 44.6 °F 37.4 °F 41.0 °F 87% 29.56 in 2.5 mi NNW 16.1 mph - 0.16 in Rain Rain
5:54 PM 43.0 °F 36.4 °F 39.9 °F 89% 29.57 in 2.5 mi North 12.7 mph - 0.17 in Rain Heavy Rain
6:12 PM 43.0 °F 36.8 °F 39.9 °F 89% 29.57 in 3.0 mi North 11.5 mph - 0.07 in Rain Rain
6:19 PM 43.0 °F 36.4 °F 39.9 °F 89% 29.57 in 2.5 mi North 12.7 mph - 0.09 in Rain Rain
6:54 PM 43.0 °F 35.7 °F 39.9 °F 89% 29.57 in 3.0 mi North 15.0 mph - 0.20 in Rain Rain
7:54 PM 43.0 °F 37.7 °F 39.9 °F 89% 29.58 in 3.0 mi North 9.2 mph - 0.15 in Rain Rain
8:54 PM 43.0 °F 37.2 °F 39.9 °F 89% 29.60 in 9.0 mi North 10.4 mph - 0.02 in Rain Light Rain
9:51 PM 42.8 °F 37.0 °F 39.2 °F 87% 29.62 in 7.0 mi NW 10.4 mph - 0.00 in   Overcast
9:54 PM 42.1 °F 36.6 °F 39.0 °F 89% 29.63 in 7.0 mi NW 9.2 mph - 0.00 in   Overcast
10:24 PM 41.0 °F 36.4 °F 39.0 °F 93% 29.63 in 6.0 mi NW 6.9 mph - N/A   Overcast
10:54 PM 41.0 °F 37.1 °F 37.9 °F 89% 29.64 in 7.0 mi NW 5.8 mph - N/A   Overcast
11:54 PM 39.9 °F 35.8 °F 36.0 °F 86% 29.66 in 7.0 mi West 5.8 mph - N/A   Overcast